Location: Newark
(34.6283°N, 36.0776°E)
Time: 02:07:31
(UTC+00:00)

S-56A Canister/Altair - Pass Details

Date: 17 October 2019
Orbit: 634 x 2498 km, 38.9° (Epoch: 13 November)

Event Time Altitude Azimuth Distance (km) Brightness Sun altitude
Rises 05:52:00 0° 290° (WNW) 4,775 11.0 24.0°
Reaches altitude 10° 05:54:46 10° 289° (WNW) 4,007 10.7 24.5°
Maximum altitude 06:06:04 79° 205° (SSW) 2,226 10.3 26.4°
Drops below altitude 10° 06:21:03 10° 122° (ESE) 5,150 13.4 28.9°
Sets 06:25:07 0° 121° (ESE) 6,163 13.3 29.6°
